EWG925 EDDH-LEPA

Flight info

Callsign EWG925
Flight time N/A
Altitude 38000
Route HABFU1G HABFU Y348 DOMEG DCT LIRSU DCT LIMGO/N0436F370 N852 SUTAL DCT GTQ DCT POGOL DCT LASAT DCT MOROK DCT GILIR DCT GEVEA DCT INCUS DCT BALSI DCT RETNO DCT TUPOX DCT MTG DCT DIVKO DCT VATIR N852 PIVUS DCT BODEQ N852 VERSO DCT LUNIK
Aircraft A320/M-SDE3FGHIRWY/LB1

Departure

Time 2026-04-24 16:06
Airport Hamburg Helmut Schmidt Airport (EDDH)

Arrival

Time N/A
Airport Palma de Mallorca Airport (LEPA)
Time Latitude Longitude Altitude Speed Heading
2026-04-24 15:46 53.63169 10.00362 46 ft 0 kts 87°
2026-04-24 15:58 53.63169 10.00354 46 ft 2 kts 87°
2026-04-24 15:59 53.63168 10.00326 45 ft 2 kts 87°
2026-04-24 15:59 53.63167 10.00298 45 ft 2 kts 87°
2026-04-24 15:59 53.63166 10.00270 45 ft 2 kts 87°
2026-04-24 15:59 53.63165 10.00242 45 ft 2 kts 87°
2026-04-24 16:00 53.63164 10.00213 45 ft 2 kts 103°
2026-04-24 16:00 53.63171 10.00188 41 ft 2 kts 158°
2026-04-24 16:00 53.63186 10.00183 44 ft 0 kts 177°
2026-04-24 16:02 53.63169 10.00185 42 ft 5 kts 175°
2026-04-24 16:02 53.63141 10.00189 45 ft 4 kts 175°
2026-04-24 16:02 53.63095 10.00194 43 ft 7 kts 181°
2026-04-24 16:03 53.63052 10.00165 45 ft 7 kts 212°
2026-04-24 16:03 53.62995 10.00103 45 ft 11 kts 212°
2026-04-24 16:03 53.62937 10.00035 46 ft 10 kts 225°
2026-04-24 16:03 53.62903 9.99935 45 ft 10 kts 243°
2026-04-24 16:04 53.62877 9.99850 47 ft 7 kts 243°
2026-04-24 16:04 53.62863 9.99770 47 ft 8 kts 272°
2026-04-24 16:04 53.62892 9.99725 47 ft 0 kts 333°
2026-04-24 16:05 53.62895 9.99722 47 ft 6 kts 333°
2026-04-24 16:05 53.63168 9.99487 45 ft 79 kts 333°
2026-04-24 16:06 53.64744 9.98091 420 ft 149 kts 328°
2026-04-24 16:06 53.65671 9.97305 1189 ft 148 kts 330°
2026-04-24 16:06 53.67715 9.95554 2027 ft 186 kts 330°
2026-04-24 16:07 53.68896 9.94541 2737 ft 193 kts 332°
2026-04-24 16:07 53.70115 9.93497 3480 ft 198 kts 332°
2026-04-24 16:07 53.71543 9.89704 4760 ft 227 kts 268°
2026-04-24 16:08 53.71165 9.86935 5148 ft 256 kts 258°
2026-04-24 16:08 53.69800 9.81079 6576 ft 282 kts 240°
2026-04-24 16:09 53.66490 9.77116 8201 ft 301 kts 212°
2026-04-24 16:09 53.64624 9.75475 9080 ft 304 kts 212°
2026-04-24 16:09 53.62740 9.73831 9940 ft 306 kts 212°
2026-04-24 16:09 53.60831 9.72162 10593 ft 316 kts 212°
2026-04-24 16:10 53.54515 9.66596 12063 ft 353 kts 211°
2026-04-24 16:11 53.50118 9.62736 13569 ft 359 kts 211°
2026-04-24 16:11 53.47892 9.60780 14277 ft 362 kts 211°
2026-04-24 16:11 53.45656 9.58817 14948 ft 364 kts 211°
2026-04-24 16:12 53.41141 9.54864 16271 ft 368 kts 211°
2026-04-24 16:12 53.38865 9.52875 16941 ft 370 kts 211°
2026-04-24 16:12 53.34263 9.48865 18229 ft 375 kts 211°
2026-04-24 16:13 53.31942 9.46848 18825 ft 377 kts 211°
2026-04-24 16:13 53.27257 9.42784 19949 ft 382 kts 211°
2026-04-24 16:14 53.22516 9.38672 21064 ft 386 kts 211°
2026-04-24 16:14 53.20123 9.36600 21622 ft 388 kts 211°
2026-04-24 16:14 53.15294 9.32433 22725 ft 393 kts 211°
2026-04-24 16:15 53.13681 9.31047 23081 ft 395 kts 211°
2026-04-24 16:15 53.07961 9.26121 24206 ft 400 kts 212°
2026-04-24 16:16 53.02985 9.21833 25078 ft 404 kts 211°
2026-04-24 16:16 53.00483 9.19690 25496 ft 405 kts 211°
2026-04-24 16:17 52.92907 9.13235 26723 ft 409 kts 211°
2026-04-24 16:17 52.87838 9.08916 27539 ft 411 kts 211°
2026-04-24 16:18 52.82739 9.04586 28309 ft 413 kts 211°
2026-04-24 16:18 52.77601 9.00235 29017 ft 416 kts 211°
2026-04-24 16:18 52.75049 8.98078 29359 ft 418 kts 211°
2026-04-24 16:19 52.69850 8.93693 30021 ft 421 kts 211°
2026-04-24 16:19 52.67236 8.91498 30311 ft 422 kts 211°
2026-04-24 16:20 52.61988 8.87101 30851 ft 424 kts 211°
2026-04-24 16:20 52.56717 8.82690 31353 ft 426 kts 211°
2026-04-24 16:20 52.54080 8.80482 31671 ft 425 kts 211°
2026-04-24 16:21 52.48846 8.76105 32391 ft 421 kts 211°
2026-04-24 16:21 52.46238 8.73931 32744 ft 419 kts 212°
2026-04-24 16:21 52.43644 8.71776 33076 ft 417 kts 211°
2026-04-24 16:22 52.41057 8.69632 33422 ft 416 kts 212°
2026-04-24 16:22 52.35911 8.65379 34123 ft 413 kts 212°
2026-04-24 16:22 52.33353 8.63259 34420 ft 411 kts 212°
2026-04-24 16:23 52.30798 8.61142 34678 ft 411 kts 212°
2026-04-24 16:23 52.28339 8.58824 34924 ft 406 kts 219°
2026-04-24 16:23 52.26137 8.55972 35151 ft 402 kts 227°
2026-04-24 16:24 52.22355 8.49320 35599 ft 399 kts 231°
2026-04-24 16:24 52.20489 8.45962 35787 ft 399 kts 231°
2026-04-24 16:24 52.18621 8.42608 36000 ft 399 kts 231°
2026-04-24 16:24 52.16752 8.39263 36205 ft 399 kts 231°
2026-04-24 16:25 52.14879 8.35920 36416 ft 399 kts 231°
2026-04-24 16:25 52.13005 8.32582 36602 ft 399 kts 231°
2026-04-24 16:25 52.11130 8.29246 36777 ft 400 kts 231°
2026-04-24 16:26 52.07374 8.22586 37161 ft 399 kts 231°
2026-04-24 16:26 52.05497 8.19253 37338 ft 399 kts 231°
2026-04-24 16:26 52.01749 8.12604 37669 ft 399 kts 231°
2026-04-24 16:27 51.99895 8.09325 37819 ft 399 kts 230°
2026-04-24 16:27 51.98023 8.06021 38019 ft 398 kts 231°
2026-04-24 16:27 51.96148 8.02719 38177 ft 398 kts 231°
2026-04-24 16:28 51.92407 7.96132 38201 ft 397 kts 231°
2026-04-24 16:28 51.86791 7.86279 38201 ft 397 kts 230°
2026-04-24 16:29 51.83044 7.79732 38206 ft 397 kts 230°
2026-04-24 16:30 51.75500 7.66606 38204 ft 398 kts 230°
2026-04-24 16:30 51.71646 7.60176 38216 ft 401 kts 223°
2026-04-24 16:31 51.66833 7.55535 38224 ft 407 kts 210°
2026-04-24 16:31 51.61749 7.51635 38222 ft 407 kts 210°
2026-04-24 16:32 51.56632 7.47708 38206 ft 407 kts 210°
2026-04-24 16:32 51.51515 7.43783 38214 ft 408 kts 210°
2026-04-24 16:33 51.46391 7.39865 38212 ft 408 kts 210°
2026-04-24 16:33 51.41265 7.35956 38217 ft 408 kts 210°
2026-04-24 16:34 51.36135 7.32049 38218 ft 408 kts 210°
2026-04-24 16:34 51.31009 7.28167 38200 ft 408 kts 209°
2026-04-24 16:35 51.25874 7.24285 38211 ft 408 kts 209°
2026-04-24 16:35 51.20737 7.20409 38215 ft 408 kts 209°
2026-04-24 16:36 51.15600 7.16549 38223 ft 408 kts 209°
2026-04-24 16:36 51.10459 7.12693 38218 ft 408 kts 209°
2026-04-24 16:37 51.05317 7.08831 38222 ft 409 kts 208°
2026-04-24 16:37 51.00203 7.05006 38224 ft 409 kts 208°
2026-04-24 16:38 50.95053 7.01172 38227 ft 409 kts 208°
2026-04-24 16:38 50.89900 6.97341 38229 ft 409 kts 208°
2026-04-24 16:39 50.84750 6.93516 38228 ft 409 kts 208°
2026-04-24 16:39 50.79594 6.89702 38229 ft 409 kts 208°
2026-04-24 16:40 50.74433 6.85910 38231 ft 409 kts 208°
2026-04-24 16:40 50.69267 6.82109 38231 ft 409 kts 208°
2026-04-24 16:41 50.64109 6.78318 38223 ft 409 kts 208°
2026-04-24 16:41 50.58978 6.74553 38222 ft 409 kts 208°
2026-04-24 16:42 50.53815 6.70775 38223 ft 409 kts 208°
2026-04-24 16:42 50.48659 6.67009 38212 ft 409 kts 208°
2026-04-24 16:43 50.43495 6.63258 38203 ft 409 kts 207°
2026-04-24 16:43 50.38332 6.59516 38202 ft 409 kts 207°
2026-04-24 16:44 50.33161 6.55780 38206 ft 409 kts 207°
2026-04-24 16:44 50.28873 6.52683 38201 ft 408 kts 207°
2026-04-24 16:45 50.23710 6.48959 38189 ft 408 kts 207°
2026-04-24 16:45 50.17607 6.45024 38191 ft 411 kts 197°
2026-04-24 16:46 50.11993 6.43214 38187 ft 412 kts 194°
2026-04-24 16:46 50.07278 6.41732 38189 ft 413 kts 194°
2026-04-24 16:47 50.01677 6.39987 38168 ft 413 kts 194°
2026-04-24 16:47 49.96032 6.38230 38178 ft 413 kts 194°
2026-04-24 16:48 49.90389 6.36462 38191 ft 413 kts 194°
2026-04-24 16:48 49.84759 6.34696 38208 ft 413 kts 194°
2026-04-24 16:49 49.79128 6.32936 38197 ft 412 kts 194°
2026-04-24 16:49 49.73497 6.31194 38204 ft 412 kts 193°
2026-04-24 16:50 49.67897 6.29488 38206 ft 413 kts 190°
2026-04-24 16:50 49.62136 6.29681 38209 ft 420 kts 171°
2026-04-24 16:51 49.56608 6.32759 38191 ft 425 kts 160°
2026-04-24 16:51 49.51159 6.36289 38191 ft 424 kts 161°
2026-04-24 16:52 49.45707 6.39792 38194 ft 424 kts 160°
2026-04-24 16:52 49.40294 6.43422 38183 ft 425 kts 159°
2026-04-24 16:53 49.34939 6.47125 38179 ft 425 kts 159°
2026-04-24 16:53 49.29553 6.50823 38177 ft 424 kts 159°
2026-04-24 16:54 49.24150 6.54479 38182 ft 424 kts 159°
2026-04-24 16:54 49.18751 6.58112 38181 ft 424 kts 160°
2026-04-24 16:55 49.13360 6.61736 38177 ft 423 kts 160°
2026-04-24 16:55 49.07965 6.65357 38173 ft 424 kts 159°
2026-04-24 16:56 49.02572 6.68980 38175 ft 424 kts 159°
2026-04-24 16:56 48.96958 6.71337 38172 ft 416 kts 178°
2026-04-24 16:57 48.91205 6.71322 38170 ft 413 kts 184°
2026-04-24 16:57 48.85444 6.71081 38168 ft 414 kts 183°
2026-04-24 16:58 48.79729 6.70866 38171 ft 414 kts 183°
2026-04-24 16:58 48.73973 6.70659 38174 ft 414 kts 183°
2026-04-24 16:59 48.68211 6.70437 38174 ft 413 kts 183°
2026-04-24 17:00 48.59578 6.70091 38172 ft 414 kts 184°
2026-04-24 17:00 48.50943 6.69749 38172 ft 414 kts 183°
2026-04-24 17:01 48.42305 6.69428 38169 ft 414 kts 183°
2026-04-24 17:02 48.33696 6.69096 38169 ft 414 kts 183°
2026-04-24 17:02 48.27927 6.68877 38171 ft 414 kts 183°
2026-04-24 17:03 48.19288 6.68546 38164 ft 414 kts 183°
2026-04-24 17:04 48.13539 6.68322 38163 ft 414 kts 183°
2026-04-24 17:04 48.04911 6.67994 38159 ft 413 kts 183°
2026-04-24 17:05 47.99163 6.67776 38161 ft 413 kts 182°
2026-04-24 17:06 47.90594 6.67454 38156 ft 412 kts 182°
2026-04-24 17:06 47.81985 6.67121 38152 ft 413 kts 182°
2026-04-24 17:07 47.76244 6.66913 38141 ft 413 kts 182°
2026-04-24 17:08 47.64768 6.66478 38148 ft 412 kts 182°
2026-04-24 17:08 47.59034 6.66265 38148 ft 412 kts 182°
2026-04-24 17:09 47.47559 6.65844 38147 ft 412 kts 182°
2026-04-24 17:10 47.36719 6.61702 38134 ft 410 kts 214°
2026-04-24 17:12 47.19221 6.39933 38128 ft 412 kts 219°